Time,TemperatureF,DewpointF,PressureIn,WindDirection,WindDirectionDegrees,WindSpeedMPH,WindSpeedGustMPH,Humidity,HourlyPrecipIn,Conditions,Clouds,dailyrainin,SoftwareType,DateUTC
2013-02-06 07:50:00,4.1,3.2,30.11,SSW,202,0.0,-999.0,96,-99.99,,,0.00,Acu-Link.com,2013-02-06 12:50:00,
2013-02-06 08:21:00,4.1,2.8,30.12,SSW,202,0.0,-999.0,94,-99.99,,,0.00,Acu-Link.com,2013-02-06 13:21:00,
2013-02-06 08:37:00,7.2,6.1,30.13,SSW,202,0.0,-999.0,95,-99.99,,,0.00,Acu-Link.com,2013-02-06 13:37:00,
2013-02-06 08:53:00,9.7,8.6,30.13,SSW,202,0.0,-999.0,95,-99.99,,,0.00,Acu-Link.com,2013-02-06 13:53:00,
2013-02-06 09:08:00,12.2,11.0,30.14,SSW,202,0.0,-999.0,95,-99.99,,,0.00,Acu-Link.com,2013-02-06 14:08:00,
2013-02-06 09:23:00,15.8,14.1,30.14,WSW,247,0.0,-999.0,93,-99.99,,,0.00,Acu-Link.com,2013-02-06 14:23:00,
2013-02-06 09:38:00,18.1,15.4,30.15,West,270,1.7,-999.0,89,-99.99,,,0.00,Acu-Link.com,2013-02-06 14:38:00,
2013-02-06 09:54:00,19.6,15.8,30.15,North,0,0.0,-999.0,85,-99.99,,,0.00,Acu-Link.com,2013-02-06 14:54:00,
2013-02-06 10:28:00,23.5,15.2,30.15,ESE,112,2.2,-999.0,70,-99.99,,,0.00,Acu-Link.com,2013-02-06 15:28:00,
2013-02-06 10:43:00,24.4,16.0,30.15,West,270,2.7,-999.0,70,-99.99,,,0.00,Acu-Link.com,2013-02-06 15:43:00,
2013-02-06 10:59:00,25.9,16.5,30.16,South,180,2.7,-999.0,67,-99.99,,,0.00,Acu-Link.com,2013-02-06 15:59:00,
2013-02-06 11:14:00,25.7,16.3,30.16,SSE,157,2.7,-999.0,67,-99.99,,,0.00,Acu-Link.com,2013-02-06 16:14:00,
2013-02-06 11:30:00,26.6,16.1,30.17,SSW,202,3.2,-999.0,64,-99.99,,,0.00,Acu-Link.com,2013-02-06 16:30:00,
2013-02-06 11:45:00,28.2,16.9,30.17,SW,225,2.7,-999.0,62,-99.99,,,0.00,Acu-Link.com,2013-02-06 16:45:00,
2013-02-06 12:01:00,28.8,16.3,30.17,West,270,2.7,-999.0,59,-99.99,,,0.00,Acu-Link.com,2013-02-06 17:01:00,
2013-02-06 12:16:00,29.5,16.2,30.16,West,270,2.7,-999.0,57,-99.99,,,0.00,Acu-Link.com,2013-02-06 17:16:00,
2013-02-06 12:31:00,30.0,16.6,30.15,SW,225,3.2,-999.0,57,-99.99,,,0.00,Acu-Link.com,2013-02-06 17:31:00,
2013-02-06 12:47:00,30.9,17.1,30.16,West,270,2.7,-999.0,56,-99.99,,,0.00,Acu-Link.com,2013-02-06 17:47:00,
2013-02-06 13:02:00,30.9,16.2,30.17,SE,135,2.7,-999.0,54,-99.99,,,0.00,Acu-Link.com,2013-02-06 18:02:00,
2013-02-06 13:17:00,30.7,16.0,30.16,North,0,3.2,-999.0,54,-99.99,,,0.00,Acu-Link.com,2013-02-06 18:17:00,
2013-02-06 13:33:00,30.2,16.0,30.16,West,270,4.2,-999.0,55,-99.99,,,0.01,Acu-Link.com,2013-02-06 18:33:00,
2013-02-06 13:48:00,30.2,16.4,30.16,WNW,292,2.7,-999.0,56,-99.99,,,0.02,Acu-Link.com,2013-02-06 18:48:00,
2013-02-06 14:03:00,29.5,15.8,30.15,NNW,337,3.7,-999.0,56,-99.99,,,0.02,Acu-Link.com,2013-02-06 19:03:00,
2013-02-06 14:19:00,29.8,16.0,30.14,West,270,3.7,-999.0,56,-99.99,,,0.03,Acu-Link.com,2013-02-06 19:19:00,
2013-02-06 14:34:00,31.1,16.4,30.15,SW,225,4.2,-999.0,54,-99.99,,,0.03,Acu-Link.com,2013-02-06 19:34:00,
2013-02-06 14:49:00,30.9,16.2,30.14,SSW,202,2.7,-999.0,54,-99.99,,,0.03,Acu-Link.com,2013-02-06 19:49:00,
2013-02-06 15:05:00,31.1,16.4,30.14,WSW,247,2.2,-999.0,54,-99.99,,,0.03,Acu-Link.com,2013-02-06 20:05:00,
2013-02-06 15:20:00,31.3,16.6,30.14,ESE,112,2.7,-999.0,54,-99.99,,,0.03,Acu-Link.com,2013-02-06 20:20:00,
2013-02-06 15:35:00,30.9,15.8,30.14,SW,225,2.7,-999.0,53,-99.99,,,0.03,Acu-Link.com,2013-02-06 20:35:00,
2013-02-06 15:51:00,30.6,16.0,30.12,SW,225,2.7,-999.0,54,-99.99,,,0.03,Acu-Link.com,2013-02-06 20:51:00,
2013-02-06 16:15:00,30.2,16.0,30.11,SSW,202,2.7,-999.0,55,-99.99,,,0.03,Acu-Link.com,2013-02-06 21:15:00,
2013-02-06 16:30:00,30.2,16.0,30.13,SSE,157,2.2,-999.0,55,-99.99,,,0.03,Acu-Link.com,2013-02-06 21:30:00,
2013-02-06 16:54:00,31.1,16.8,30.13,South,180,1.7,-999.0,55,-99.99,,,0.03,Acu-Link.com,2013-02-06 21:54:00,
2013-02-06 17:23:00,30.7,16.0,30.13,SW,225,1.7,-999.0,54,-99.99,,,0.03,Acu-Link.com,2013-02-06 22:23:00,
2013-02-06 17:38:00,28.8,16.3,30.15,SW,225,1.7,-999.0,59,-99.99,,,0.03,Acu-Link.com,2013-02-06 22:38:00,
2013-02-06 17:53:00,27.5,15.8,30.16,WSW,247,0.0,-999.0,61,-99.99,,,0.03,Acu-Link.com,2013-02-06 22:53:00,
2013-02-06 18:08:00,25.0,16.0,30.16,SSE,157,0.0,-999.0,68,-99.99,,,0.03,Acu-Link.com,2013-02-06 23:08:00,
2013-02-06 18:24:00,23.7,15.4,30.17,SE,135,0.0,-999.0,70,-99.99,,,0.03,Acu-Link.com,2013-02-06 23:24:00,
2013-02-06 18:50:00,22.3,16.2,30.17,SE,135,0.0,-999.0,77,-99.99,,,0.03,Acu-Link.com,2013-02-06 23:50:00,
2013-02-06 19:09:00,23.9,16.8,30.19,SW,225,2.7,-999.0,74,-99.99,,,0.03,Acu-Link.com,2013-02-07 00:09:00,
2013-02-06 19:25:00,23.4,16.7,30.18,South,180,1.7,-999.0,75,-99.99,,,0.03,Acu-Link.com,2013-02-07 00:25:00,
2013-02-06 19:42:00,23.4,16.7,30.18,SW,225,2.2,-999.0,75,-99.99,,,0.03,Acu-Link.com,2013-02-07 00:42:00,
2013-02-06 19:57:00,24.6,16.6,30.18,South,180,3.2,-999.0,71,-99.99,,,0.03,Acu-Link.com,2013-02-07 00:57:00,
2013-02-06 20:16:00,24.6,16.2,30.17,South,180,1.7,-999.0,70,-99.99,,,0.03,Acu-Link.com,2013-02-07 01:16:00,
2013-02-06 20:35:00,24.1,15.8,30.16,SE,135,2.7,-999.0,70,-99.99,,,0.03,Acu-Link.com,2013-02-07 01:35:00,
2013-02-06 21:29:00,23.5,15.5,30.15,South,180,2.2,-999.0,71,-99.99,,,0.03,Acu-Link.com,2013-02-07 02:29:00,
2013-02-06 21:45:00,23.5,15.2,30.16,SSE,157,1.7,-999.0,70,-99.99,,,0.03,Acu-Link.com,2013-02-07 02:45:00,
2013-02-06 22:10:00,23.9,15.6,30.14,South,180,1.7,-999.0,70,-99.99,,,0.03,Acu-Link.com,2013-02-07 03:10:00,
2013-02-06 22:25:00,23.9,15.2,30.13,SE,135,2.7,-999.0,69,-99.99,,,0.03,Acu-Link.com,2013-02-07 03:25:00,
2013-02-06 22:49:00,23.9,15.6,30.13,West,270,2.2,-999.0,70,-99.99,,,0.03,Acu-Link.com,2013-02-07 03:49:00,
2013-02-06 23:05:00,24.1,15.8,30.14,West,270,3.2,-999.0,70,-99.99,,,0.03,Acu-Link.com,2013-02-07 04:05:00,